• In Hungary
  • List of Countries
  • For 7 days
  • Water Temperature
  • Satellite Maps
  • Weather Map
  • News
  • Weather Widgets
  • user-avatar
    Login

    Hourly Weather Milzyn

    Today, 13 December, Wednesday

    Time Temperature Precipitation Wind Pressure Humidity
    00:00 -1°C° 0 mm 7 mps 750 mmHg 73%
    01:00 0°C° 0 mm 5 mps 750 mmHg 77%
    02:00 -1°C° 0 mm 5 mps 750 mmHg 79%
    03:00 -1°C° 0 mm 4 mps 751 mmHg 82%
    04:00 -2°C° 0 mm 4 mps 751 mmHg 85%
    05:00 -2°C° 0 mm 4 mps 752 mmHg 87%
    06:00 -1°C° 0 mm 3 mps 752 mmHg 89%
    07:00 -2°C° 0 mm 2 mps 753 mmHg 92%
    08:00 -1°C° 0 mm 3 mps 753 mmHg 90%
    09:00 -1°C° 0 mm 3 mps 753 mmHg 87%
    10:00 -1°C° 0 mm 4 mps 753 mmHg 85%
    11:00 -1°C° 0 mm 4 mps 752 mmHg 81%
    12:00 0°C° 0 mm 4 mps 752 mmHg 78%
    13:00 0°C° 0 mm 4 mps 752 mmHg 75%
    14:00 0°C° 0 mm 4 mps 751 mmHg 77%
    15:00 -1°C° 0 mm 4 mps 751 mmHg 79%
    16:00 -1°C° 0 mm 4 mps 750 mmHg 81%
    17:00 -1°C° 0 mm 4 mps 749 mmHg 79%
    18:00 -1°C° 0 mm 5 mps 748 mmHg 78%
    19:00 -1°C° 0 mm 5 mps 748 mmHg 76%
    20:00 -1°C° 0 mm 5 mps 747 mmHg 75%
    21:00 -2°C° 0 mm 6 mps 746 mmHg 74%
    22:00 -3°C° 0 mm 6 mps 745 mmHg 72%
    23:00 -2°C° 0 mm 7 mps 744 mmHg 70%

    Tomorrow, 14 December, Thursday

    Time Temperature Precipitation Wind Pressure Humidity
    00:00 -2°C° 0 mm 7 mps 743 mmHg 67%
    01:00 -2°C° 0 mm 7 mps 742 mmHg 64%
    02:00 -2°C° 0.1 mm 7 mps 741 mmHg 64%
    03:00 -1°C° 0.1 mm 7 mps 739 mmHg 63%
    04:00 -1°C° 0.1 mm 7 mps 738 mmHg 62%
    05:00 -1°C° 0.4 mm 8 mps 737 mmHg 64%
    06:00 0°C° 0.4 mm 8 mps 736 mmHg 66%
    07:00 0°C° 0.4 mm 9 mps 735 mmHg 67%
    08:00 0°C° 0.8 mm 8 mps 735 mmHg 71%
    09:00 +1°C° 0.8 mm 8 mps 735 mmHg 74%
    10:00 +1°C° 0.8 mm 8 mps 735 mmHg 77%
    11:00 +2°C° 0.2 mm 7 mps 735 mmHg 78%
    12:00 +2°C° 0.2 mm 6 mps 735 mmHg 80%
    13:00 +2°C° 0.2 mm 5 mps 735 mmHg 81%
    14:00 +2°C° 0.8 mm 6 mps 735 mmHg 80%
    15:00 +1°C° 0.8 mm 6 mps 736 mmHg 80%
    16:00 0°C° 0.8 mm 7 mps 736 mmHg 80%
    17:00 0°C° 0.3 mm 7 mps 737 mmHg 79%
    18:00 -1°C° 0.3 mm 7 mps 737 mmHg 79%
    19:00 -1°C° 0.3 mm 7 mps 738 mmHg 78%
    20:00 -1°C° 0 mm 6 mps 738 mmHg 78%
    21:00 -2°C° 0 mm 6 mps 739 mmHg 78%
    22:00 -2°C° 0 mm 6 mps 739 mmHg 77%
    23:00 -1°C° 0 mm 5 mps 739 mmHg 78%

    Day after tomorrow, 15 December, Friday

    Time Temperature Precipitation Wind Pressure Humidity
    00:00 -1°C° 0 mm 5 mps 739 mmHg 78%
    01:00 -1°C° 0 mm 5 mps 738 mmHg 79%
    02:00 -1°C° 0.1 mm 5 mps 738 mmHg 79%
    03:00 -2°C° 0.1 mm 6 mps 738 mmHg 79%
    04:00 -1°C° 0.1 mm 6 mps 737 mmHg 78%
    05:00 0°C° 0.3 mm 5 mps 737 mmHg 80%
    06:00 0°C° 0.3 mm 5 mps 737 mmHg 82%
    07:00 0°C° 0.3 mm 4 mps 736 mmHg 84%
    08:00 0°C° 1 mm 4 mps 736 mmHg 86%
    09:00 0°C° 1 mm 4 mps 736 mmHg 88%
    10:00 0°C° 1 mm 4 mps 737 mmHg 91%
    11:00 0°C° 0.2 mm 5 mps 737 mmHg 91%
    12:00 0°C° 0.2 mm 5 mps 737 mmHg 92%
    13:00 0°C° 0.2 mm 5 mps 737 mmHg 93%
    14:00 0°C° 0.1 mm 5 mps 738 mmHg 92%
    15:00 0°C° 0.1 mm 5 mps 738 mmHg 90%
    16:00 -1°C° 0.1 mm 5 mps 739 mmHg 89%
    17:00 -1°C° 0 mm 5 mps 740 mmHg 89%
    18:00 -1°C° 0 mm 5 mps 740 mmHg 89%
    19:00 -2°C° 0 mm 5 mps 741 mmHg 88%
    20:00 -2°C° 0 mm 4 mps 741 mmHg 89%
    21:00 -2°C° 0 mm 4 mps 741 mmHg 89%
    22:00 -3°C° 0 mm 4 mps 742 mmHg 89%
    23:00 -3°C° 0 mm 4 mps 742 mmHg 89%

    16 December, Saturday

    Time Temperature Precipitation Wind Pressure Humidity
    00:00 -2°C° 0 mm 3 mps 742 mmHg 90%
    01:00 -2°C° 0 mm 3 mps 742 mmHg 90%
    02:00 -2°C° 0 mm 3 mps 742 mmHg 90%
    03:00 -2°C° 0 mm 3 mps 742 mmHg 90%
    04:00 -2°C° 0 mm 2 mps 742 mmHg 90%
    05:00 -2°C° 0 mm 2 mps 742 mmHg 90%
    06:00 -2°C° 0 mm 2 mps 742 mmHg 90%
    07:00 -2°C° 0 mm 2 mps 742 mmHg 90%
    08:00 -1°C° 0 mm 2 mps 742 mmHg 90%
    09:00 -1°C° 0 mm 3 mps 742 mmHg 90%
    10:00 -1°C° 0 mm 3 mps 743 mmHg 90%
    11:00 0°C° 0 mm 3 mps 743 mmHg 90%
    12:00 0°C° 0 mm 3 mps 743 mmHg 91%
    13:00 0°C° 0 mm 3 mps 743 mmHg 91%
    14:00 -1°C° 0 mm 4 mps 743 mmHg 92%
    15:00 -1°C° 0 mm 4 mps 744 mmHg 92%
    16:00 -2°C° 0 mm 4 mps 744 mmHg 93%
    17:00 -2°C° 0 mm 4 mps 745 mmHg 91%
    18:00 -1°C° 0 mm 5 mps 745 mmHg 89%
    19:00 -1°C° 0 mm 5 mps 746 mmHg 88%
    20:00 -1°C° 0 mm 5 mps 746 mmHg 88%
    21:00 -1°C° 0 mm 4 mps 746 mmHg 89%
    22:00 -2°C° 0 mm 4 mps 747 mmHg 90%
    23:00 -2°C° 0 mm 4 mps 747 mmHg 91%

    17 December, Sunday

    Time Temperature Precipitation Wind Pressure Humidity
    00:00 -2°C° 0 mm 4 mps 747 mmHg 92%
    01:00 -3°C° 0 mm 4 mps 748 mmHg 93%
    02:00 -2°C° 0 mm 4 mps 748 mmHg 92%
    03:00 -2°C° 0 mm 4 mps 748 mmHg 91%
    04:00 -2°C° 0 mm 4 mps 748 mmHg 91%
    05:00 -2°C° 0 mm 4 mps 749 mmHg 90%
    06:00 -2°C° 0 mm 4 mps 749 mmHg 89%
    07:00 -2°C° 0 mm 4 mps 749 mmHg 88%
    08:00 -2°C° 0.1 mm 4 mps 750 mmHg 89%
    09:00 -1°C° 0.1 mm 4 mps 750 mmHg 89%
    10:00 -1°C° 0.1 mm 4 mps 751 mmHg 89%
    11:00 -1°C° 0.1 mm 4 mps 751 mmHg 88%
    12:00 -1°C° 0.1 mm 4 mps 751 mmHg 88%
    13:00 -1°C° 0.1 mm 4 mps 751 mmHg 87%
    14:00 0°C° 0.1 mm 3 mps 751 mmHg 88%
    15:00 0°C° 0.1 mm 3 mps 751 mmHg 89%
    16:00 -1°C° 0.1 mm 3 mps 752 mmHg 91%
    17:00 -1°C° 0.1 mm 3 mps 752 mmHg 91%
    18:00 -1°C° 0.1 mm 3 mps 752 mmHg 92%
    19:00 -1°C° 0.1 mm 3 mps 753 mmHg 92%
    20:00 -1°C° 0 mm 3 mps 753 mmHg 93%
    21:00 -1°C° 0 mm 2 mps 754 mmHg 93%
    22:00 -2°C° 0 mm 2 mps 754 mmHg 93%
    23:00 -2°C° 0 mm 2 mps 754 mmHg 93%

    18 December, Monday

    Time Temperature Precipitation Wind Pressure Humidity
    00:00 -2°C° 0 mm 2 mps 755 mmHg 93%
    01:00 -2°C° 0 mm 2 mps 755 mmHg 93%
    02:00 -2°C° 0 mm 3 mps 755 mmHg 93%
    03:00 -2°C° 0 mm 3 mps 755 mmHg 93%
    04:00 -2°C° 0 mm 3 mps 756 mmHg 93%
    05:00 -2°C° 0 mm 3 mps 756 mmHg 92%
    06:00 -2°C° 0 mm 3 mps 756 mmHg 92%
    07:00 -2°C° 0 mm 3 mps 756 mmHg 91%
    08:00 -2°C° 0 mm 3 mps 756 mmHg 91%
    09:00 -2°C° 0 mm 3 mps 757 mmHg 90%
    10:00 -2°C° 0 mm 3 mps 757 mmHg 89%
    11:00 -2°C° 0 mm 3 mps 757 mmHg 88%
    12:00 -2°C° 0 mm 3 mps 756 mmHg 87%
    13:00 -1°C° 0 mm 3 mps 756 mmHg 85%
    14:00 -2°C° 0 mm 2 mps 757 mmHg 87%
    15:00 -2°C° 0 mm 2 mps 757 mmHg 88%
    16:00 -3°C° 0 mm 2 mps 757 mmHg 89%
    17:00 -3°C° 0 mm 2 mps 757 mmHg 89%
    18:00 -3°C° 0 mm 2 mps 758 mmHg 88%
    19:00 -3°C° 0 mm 2 mps 758 mmHg 88%
    20:00 -3°C° 0 mm 2 mps 759 mmHg 88%
    21:00 -3°C° 0 mm 2 mps 759 mmHg 88%
    22:00 -3°C° 0 mm 2 mps 759 mmHg 88%
    23:00 -3°C° 0 mm 2 mps 760 mmHg 89%
    Show more